HCJZN SEQM-MRLB

Flight info

Callsign HCJZN
Flight time 2h 5m
Altitude 26000
Route PALAD5A PALAD UL318 RADIM UZ512 SELAK SELAK1S
Aircraft RJ1H/M-SDFGIRWY/LB1

Departure

Time 2026-04-28 02:21
Airport Mariscal Sucre International Airport (SEQM)

Arrival

Time 2026-04-28 04:26
Airport Daniel Oduber Quirós International Airport (MRLB)
Time Latitude Longitude Altitude Speed Heading
2026-04-28 01:49 -0.12431 -78.35928 7840 ft 0 kts 267°
2026-04-28 02:06 -0.12430 -78.35926 7840 ft 3 kts 267°
2026-04-28 02:06 -0.12430 -78.35908 7828 ft 3 kts 267°
2026-04-28 02:07 -0.12429 -78.35889 7837 ft 3 kts 267°
2026-04-28 02:07 -0.12428 -78.35871 7835 ft 3 kts 267°
2026-04-28 02:07 -0.12420 -78.35856 7839 ft 3 kts 190°
2026-04-28 02:07 -0.12416 -78.35855 7831 ft 2 kts 142°
2026-04-28 02:08 -0.12429 -78.35845 7838 ft 2 kts 145°
2026-04-28 02:08 -0.12445 -78.35840 7837 ft 2 kts 176°
2026-04-28 02:08 -0.12449 -78.35840 7839 ft 0 kts 174°
2026-04-28 02:12 -0.12450 -78.35840 7840 ft 0 kts 174°
2026-04-28 02:12 -0.12454 -78.35839 7840 ft 1 kts 174°
2026-04-28 02:12 -0.12473 -78.35837 7837 ft 4 kts 174°
2026-04-28 02:13 -0.12514 -78.35835 7840 ft 8 kts 177°
2026-04-28 02:13 -0.12576 -78.35833 7841 ft 11 kts 178°
2026-04-28 02:13 -0.12660 -78.35829 7841 ft 13 kts 173°
2026-04-28 02:13 -0.12696 -78.35771 7842 ft 10 kts 90°
2026-04-28 02:14 -0.12693 -78.35692 7839 ft 13 kts 86°
2026-04-28 02:14 -0.12712 -78.35608 7858 ft 13 kts 151°
2026-04-28 02:14 -0.12811 -78.35597 7865 ft 13 kts 178°
2026-04-28 02:14 -0.12891 -78.35593 7868 ft 9 kts 176°
2026-04-28 02:15 -0.13010 -78.35586 7873 ft 8 kts 176°
2026-04-28 02:15 -0.13057 -78.35583 7875 ft 6 kts 177°
2026-04-28 02:15 -0.13095 -78.35581 7877 ft 4 kts 177°
2026-04-28 02:16 -0.13123 -78.35580 7879 ft 6 kts 180°
2026-04-28 02:16 -0.13183 -78.35580 7881 ft 12 kts 179°
2026-04-28 02:16 -0.13282 -78.35577 7884 ft 16 kts 177°
2026-04-28 02:16 -0.13397 -78.35571 7885 ft 18 kts 178°
2026-04-28 02:17 -0.13526 -78.35565 7888 ft 19 kts 178°
2026-04-28 02:17 -0.13656 -78.35560 7894 ft 19 kts 178°
2026-04-28 02:17 -0.13789 -78.35555 7897 ft 20 kts 178°
2026-04-28 02:17 -0.13935 -78.35550 7899 ft 22 kts 177°
2026-04-28 02:18 -0.14084 -78.35543 7910 ft 21 kts 178°
2026-04-28 02:18 -0.14215 -78.35537 7913 ft 15 kts 168°
2026-04-28 02:18 -0.14245 -78.35481 7918 ft 8 kts 99°
2026-04-28 02:18 -0.14252 -78.35415 7914 ft 10 kts 78°
2026-04-28 02:19 -0.14228 -78.35368 7914 ft 5 kts
2026-04-28 02:19 -0.14223 -78.35368 7913 ft 0 kts 356°
2026-04-28 02:19 -0.14119 -78.35373 7912 ft 41 kts 358°
2026-04-28 02:20 -0.13663 -78.35392 7892 ft 89 kts 358°
2026-04-28 02:20 -0.12905 -78.35422 7872 ft 128 kts 358°
2026-04-28 02:20 -0.11885 -78.35465 7823 ft 163 kts 358°
2026-04-28 02:20 -0.10713 -78.35509 8047 ft 172 kts 358°
2026-04-28 02:21 -0.09468 -78.35548 8295 ft 184 kts 358°
2026-04-28 02:21 -0.08212 -78.35745 8782 ft 182 kts 345°
2026-04-28 02:21 -0.07001 -78.36113 9191 ft 182 kts 342°
2026-04-28 02:21 -0.05812 -78.36517 9608 ft 183 kts 341°
2026-04-28 02:22 -0.04598 -78.36946 10047 ft 183 kts 340°
2026-04-28 02:22 -0.03400 -78.37377 10420 ft 182 kts 340°
2026-04-28 02:22 -0.02184 -78.37820 10555 ft 197 kts 340°
2026-04-28 02:22 -0.00841 -78.38306 10587 ft 214 kts 340°
2026-04-28 02:23 0.00615 -78.38821 10640 ft 228 kts 341°
2026-04-28 02:23 0.02168 -78.39365 10646 ft 246 kts 341°
2026-04-28 02:23 0.03850 -78.39951 10664 ft 263 kts 341°
2026-04-28 02:23 0.05552 -78.40543 11268 ft 255 kts 341°
2026-04-28 02:24 0.07225 -78.41129 11682 ft 256 kts 341°
2026-04-28 02:24 0.08907 -78.41723 12053 ft 258 kts 340°
2026-04-28 02:24 0.10445 -78.42636 12349 ft 262 kts 310°
2026-04-28 02:24 0.11374 -78.44195 12737 ft 263 kts 295°
2026-04-28 02:25 0.12125 -78.45872 13161 ft 265 kts 293°
2026-04-28 02:25 0.12834 -78.47558 13567 ft 267 kts 292°
2026-04-28 02:25 0.13536 -78.49303 14072 ft 265 kts 292°
2026-04-28 02:25 0.14210 -78.50983 14680 ft 260 kts 292°
2026-04-28 02:26 0.14887 -78.52639 15111 ft 261 kts 292°
2026-04-28 02:26 0.15599 -78.54345 15539 ft 264 kts 293°
2026-04-28 02:26 0.16317 -78.56016 15965 ft 266 kts 294°
2026-04-28 02:26 0.17059 -78.57719 16400 ft 269 kts 294°
2026-04-28 02:27 0.17820 -78.59459 16692 ft 279 kts 294°
2026-04-28 02:27 0.18618 -78.61272 16851 ft 293 kts 294°
2026-04-28 02:27 0.19476 -78.63183 16931 ft 309 kts 294°
2026-04-28 02:27 0.20371 -78.65196 16962 ft 324 kts 294°
2026-04-28 02:28 0.21303 -78.67292 16998 ft 336 kts 294°
2026-04-28 02:28 0.22262 -78.69460 17030 ft 346 kts 294°
2026-04-28 02:28 0.23240 -78.71672 17210 ft 350 kts 294°
2026-04-28 02:28 0.24228 -78.73907 17471 ft 352 kts 294°
2026-04-28 02:29 0.25222 -78.76150 17727 ft 354 kts 294°
2026-04-28 02:29 0.26224 -78.78404 17982 ft 356 kts 294°
2026-04-28 02:29 0.27227 -78.80664 18230 ft 357 kts 294°
2026-04-28 02:29 0.28235 -78.82937 18480 ft 358 kts 294°
2026-04-28 02:30 0.29251 -78.85214 18701 ft 359 kts 295°
2026-04-28 02:30 0.30270 -78.87492 18911 ft 360 kts 294°
2026-04-28 02:30 0.31381 -78.89739 19131 ft 360 kts 302°
2026-04-28 02:30 0.32832 -78.91777 19347 ft 360 kts 309°
2026-04-28 02:31 0.34444 -78.93700 19570 ft 361 kts 312°
2026-04-28 02:31 0.36122 -78.95562 19794 ft 361 kts 313°
2026-04-28 02:31 0.37832 -78.97405 20012 ft 361 kts 314°
2026-04-28 02:31 0.39548 -78.99243 20231 ft 362 kts 314°
2026-04-28 02:32 0.41254 -79.01092 20450 ft 362 kts 313°
2026-04-28 02:32 0.42960 -79.02944 20678 ft 363 kts 313°
2026-04-28 02:32 0.44661 -79.04802 20906 ft 363 kts 313°
2026-04-28 02:32 0.46348 -79.06680 21137 ft 363 kts 313°
2026-04-28 02:33 0.48035 -79.08555 21345 ft 363 kts 313°
2026-04-28 02:33 0.49720 -79.10404 21555 ft 364 kts 313°
2026-04-28 02:33 0.51421 -79.12285 21766 ft 365 kts 313°
2026-04-28 02:33 0.53116 -79.14171 21980 ft 365 kts 313°
2026-04-28 02:34 0.54831 -79.16056 22205 ft 365 kts 313°
2026-04-28 02:34 0.56532 -79.17941 22410 ft 365 kts 313°
2026-04-28 02:34 0.58232 -79.19832 22636 ft 365 kts 313°
2026-04-28 02:34 0.59945 -79.21713 22870 ft 365 kts 313°
2026-04-28 02:35 0.61652 -79.23592 23085 ft 365 kts 313°
2026-04-28 02:35 0.63326 -79.25462 23302 ft 365 kts 313°
2026-04-28 02:35 0.65051 -79.27374 23484 ft 366 kts 313°
2026-04-28 02:35 0.66750 -79.29239 23660 ft 367 kts 313°
2026-04-28 02:36 0.68467 -79.31130 23802 ft 368 kts 313°
2026-04-28 02:36 0.70181 -79.33043 23957 ft 369 kts 313°
2026-04-28 02:36 0.71900 -79.34961 24100 ft 370 kts 313°
2026-04-28 02:36 0.73625 -79.36859 24242 ft 371 kts 313°
2026-04-28 02:37 0.75361 -79.38778 24379 ft 371 kts 313°
2026-04-28 02:37 0.77066 -79.40676 24533 ft 372 kts 313°
2026-04-28 02:37 0.78805 -79.42613 24642 ft 374 kts 313°
2026-04-28 02:37 0.80551 -79.44556 24756 ft 376 kts 313°
2026-04-28 02:38 0.82320 -79.46497 24868 ft 377 kts 313°
2026-04-28 02:38 0.84053 -79.48410 24952 ft 366 kts 313°
2026-04-28 02:38 0.85747 -79.50289 25056 ft 363 kts 313°
2026-04-28 02:38 0.87433 -79.52161 25160 ft 362 kts 313°
2026-04-28 02:39 0.89122 -79.54034 25266 ft 362 kts 313°
2026-04-28 02:39 0.90810 -79.55900 25374 ft 361 kts 313°
2026-04-28 02:39 0.92473 -79.57738 25482 ft 360 kts 313°
2026-04-28 02:39 0.94156 -79.59597 25593 ft 360 kts 313°
2026-04-28 02:40 0.95842 -79.61457 25709 ft 360 kts 313°
2026-04-28 02:40 0.97550 -79.63290 25818 ft 360 kts 316°
2026-04-28 02:40 0.99372 -79.65014 25928 ft 360 kts 318°
2026-04-28 02:40 1.01245 -79.66687 25971 ft 363 kts 319°
2026-04-28 02:41 1.03149 -79.68355 25981 ft 365 kts 319°
2026-04-28 02:41 1.05066 -79.70020 25983 ft 365 kts 320°
2026-04-28 02:41 1.06985 -79.71679 25978 ft 365 kts 320°
2026-04-28 02:41 1.08901 -79.73352 25977 ft 365 kts 319°
2026-04-28 02:42 1.10807 -79.75037 25973 ft 365 kts 319°
2026-04-28 02:42 1.12685 -79.76706 25971 ft 366 kts 319°
2026-04-28 02:42 1.14585 -79.78396 25968 ft 366 kts 319°
2026-04-28 02:42 1.16491 -79.80092 25966 ft 367 kts 319°
2026-04-28 02:43 1.18398 -79.81789 25965 ft 367 kts 319°
2026-04-28 02:43 1.20301 -79.83481 25964 ft 367 kts 319°
2026-04-28 02:43 1.22218 -79.85184 25959 ft 367 kts 319°
2026-04-28 02:43 1.24125 -79.86879 25961 ft 367 kts 319°
2026-04-28 02:44 1.26041 -79.88582 25960 ft 367 kts 319°
2026-04-28 02:44 1.27945 -79.90284 25960 ft 367 kts 319°
2026-04-28 02:44 1.29848 -79.91990 25963 ft 367 kts 319°
2026-04-28 02:44 1.31756 -79.93694 25964 ft 367 kts 319°
2026-04-28 02:45 1.33642 -79.95370 25962 ft 367 kts 319°
2026-04-28 02:45 1.35550 -79.97067 25962 ft 367 kts 319°
2026-04-28 02:45 1.37450 -79.98767 25963 ft 367 kts 318°
2026-04-28 02:45 1.39358 -80.00480 25963 ft 367 kts 319°
2026-04-28 02:46 1.40619 -80.01606 25961 ft 367 kts 319°
2026-04-28 02:46 1.42525 -80.03312 25964 ft 367 kts 318°
2026-04-28 02:46 1.44399 -80.05046 25958 ft 367 kts 317°
2026-04-28 02:46 1.46262 -80.06794 25959 ft 367 kts 317°
2026-04-28 02:47 1.48118 -80.08547 25960 ft 367 kts 317°
2026-04-28 02:47 1.49979 -80.10303 25962 ft 367 kts 317°
2026-04-28 02:47 1.51837 -80.12056 25964 ft 367 kts 317°
2026-04-28 02:47 1.53695 -80.13810 25963 ft 367 kts 317°
2026-04-28 02:48 1.55552 -80.15562 25964 ft 367 kts 317°
2026-04-28 02:48 1.57411 -80.17314 25962 ft 368 kts 317°
2026-04-28 02:48 1.59271 -80.19065 25962 ft 367 kts 317°
2026-04-28 02:48 1.61138 -80.20820 25962 ft 367 kts 317°
2026-04-28 02:49 1.63002 -80.22572 25964 ft 368 kts 317°
2026-04-28 02:49 1.64865 -80.24322 25962 ft 367 kts 317°
2026-04-28 02:49 1.66708 -80.26051 25960 ft 368 kts 317°
2026-04-28 02:49 1.68573 -80.27800 25963 ft 368 kts 317°
2026-04-28 02:50 1.70440 -80.29549 25963 ft 368 kts 317°
2026-04-28 02:50 1.72305 -80.31297 25960 ft 368 kts 317°
2026-04-28 02:50 1.74170 -80.33044 25962 ft 368 kts 317°
2026-04-28 02:50 1.76031 -80.34796 25961 ft 368 kts 317°
2026-04-28 02:51 1.77901 -80.36567 25971 ft 372 kts 317°
2026-04-28 02:51 1.79802 -80.38352 25970 ft 377 kts 317°
2026-04-28 02:51 1.81732 -80.40158 25977 ft 382 kts 317°
2026-04-28 02:51 1.83682 -80.41999 25975 ft 387 kts 317°
2026-04-28 02:52 1.85656 -80.43854 25975 ft 392 kts 317°
2026-04-28 02:52 1.87654 -80.45733 25975 ft 397 kts 316°
2026-04-28 02:52 1.89673 -80.47642 25976 ft 401 kts 317°
2026-04-28 02:52 1.91728 -80.49564 25974 ft 406 kts 317°
2026-04-28 02:53 1.93788 -80.51513 25973 ft 410 kts 316°
2026-04-28 02:53 1.95873 -80.53489 25978 ft 414 kts 317°
2026-04-28 02:53 1.97988 -80.55462 25980 ft 418 kts 317°
2026-04-28 02:53 2.00118 -80.57465 25978 ft 422 kts 316°
2026-04-28 02:54 2.02259 -80.59495 25969 ft 426 kts 316°
2026-04-28 02:54 2.04425 -80.61536 25967 ft 430 kts 317°
2026-04-28 02:54 2.06620 -80.63586 25974 ft 433 kts 316°
2026-04-28 02:54 2.08814 -80.65657 25978 ft 436 kts 316°
2026-04-28 02:55 2.11028 -80.67753 25968 ft 439 kts 316°
2026-04-28 02:55 2.13257 -80.69859 25968 ft 442 kts 316°
2026-04-28 02:55 2.15509 -80.71957 25973 ft 443 kts 316°
2026-04-28 02:55 2.17754 -80.74064 25959 ft 443 kts 316°
2026-04-28 02:56 2.20001 -80.76179 25961 ft 444 kts 316°
2026-04-28 02:56 2.22250 -80.78296 25961 ft 444 kts 316°
2026-04-28 02:56 2.24469 -80.80384 25959 ft 444 kts 316°
2026-04-28 02:56 2.26720 -80.82501 25960 ft 444 kts 316°
2026-04-28 02:57 2.28977 -80.84621 25961 ft 444 kts 316°
2026-04-28 02:57 2.31229 -80.86736 25962 ft 444 kts 316°
2026-04-28 02:57 2.33479 -80.88847 25964 ft 444 kts 316°
2026-04-28 02:57 2.35736 -80.90959 25964 ft 444 kts 316°
2026-04-28 02:58 2.37992 -80.93070 25963 ft 444 kts 316°
2026-04-28 02:58 2.40253 -80.95182 25961 ft 444 kts 316°
2026-04-28 02:58 2.42514 -80.97295 25960 ft 444 kts 316°
2026-04-28 02:58 2.44731 -80.99392 25958 ft 444 kts 316°
2026-04-28 02:59 2.46976 -81.01520 25961 ft 444 kts 316°
2026-04-28 02:59 2.49236 -81.03638 25961 ft 444 kts 316°
2026-04-28 02:59 2.51494 -81.05753 25960 ft 444 kts 316°
2026-04-28 02:59 2.53736 -81.07882 25962 ft 444 kts 316°
2026-04-28 03:00 2.55986 -81.10003 25962 ft 443 kts 316°
2026-04-28 03:00 2.58238 -81.12106 25962 ft 443 kts 316°
2026-04-28 03:00 2.60484 -81.14228 25960 ft 443 kts 316°
2026-04-28 03:00 2.62693 -81.16322 25962 ft 443 kts 316°
2026-04-28 03:01 2.64949 -81.18429 25960 ft 444 kts 316°
2026-04-28 03:01 2.67196 -81.20547 25962 ft 444 kts 316°
2026-04-28 03:01 2.69437 -81.22673 25956 ft 444 kts 316°
2026-04-28 03:01 2.71692 -81.24783 25957 ft 444 kts 316°
2026-04-28 03:02 2.73939 -81.26900 25958 ft 444 kts 316°
2026-04-28 03:02 2.76180 -81.29027 25964 ft 444 kts 316°
2026-04-28 03:02 2.78437 -81.31140 25963 ft 444 kts 316°
2026-04-28 03:02 2.80694 -81.33255 25964 ft 444 kts 316°
2026-04-28 03:03 2.82932 -81.35379 25960 ft 444 kts 316°
2026-04-28 03:03 2.85180 -81.37504 25959 ft 444 kts 316°
2026-04-28 03:03 2.87439 -81.39615 25956 ft 444 kts 316°
2026-04-28 03:03 2.89683 -81.41736 25960 ft 444 kts 316°
2026-04-28 03:04 2.91930 -81.43868 25958 ft 444 kts 316°
2026-04-28 03:04 2.94186 -81.45985 25960 ft 444 kts 316°
2026-04-28 03:04 2.96412 -81.48072 25957 ft 444 kts 316°
2026-04-28 03:04 2.98655 -81.50195 25962 ft 445 kts 316°
2026-04-28 03:05 3.00899 -81.52324 25957 ft 445 kts 316°
2026-04-28 03:05 3.03159 -81.54436 25959 ft 444 kts 316°
2026-04-28 03:05 3.05414 -81.56557 25955 ft 444 kts 316°
2026-04-28 03:05 3.07659 -81.58680 25955 ft 444 kts 316°
2026-04-28 03:06 3.09904 -81.60808 25957 ft 444 kts 316°
2026-04-28 03:06 3.12159 -81.62923 25955 ft 443 kts 316°
2026-04-28 03:06 3.14408 -81.65037 25954 ft 443 kts 316°
2026-04-28 03:06 3.16643 -81.67151 25957 ft 443 kts 316°
2026-04-28 03:07 3.18882 -81.69272 25957 ft 443 kts 316°
2026-04-28 03:07 3.21129 -81.71377 25955 ft 443 kts 316°
2026-04-28 03:07 3.23347 -81.73465 25960 ft 443 kts 316°
2026-04-28 03:07 3.25590 -81.75586 25962 ft 443 kts 316°
2026-04-28 03:08 3.27829 -81.77707 25958 ft 443 kts 316°
2026-04-28 03:08 3.30076 -81.79820 25960 ft 443 kts 316°
2026-04-28 03:08 3.32327 -81.81927 25956 ft 443 kts 316°
2026-04-28 03:08 3.34572 -81.84046 25954 ft 443 kts 316°
2026-04-28 03:09 3.36816 -81.86168 25958 ft 443 kts 316°
2026-04-28 03:09 3.39057 -81.88290 25955 ft 443 kts 316°
2026-04-28 03:09 3.41301 -81.90416 25959 ft 444 kts 316°
2026-04-28 03:09 3.43550 -81.92527 25954 ft 444 kts 316°
2026-04-28 03:10 3.45802 -81.94643 25956 ft 444 kts 316°
2026-04-28 03:10 3.48048 -81.96762 25957 ft 444 kts 316°
2026-04-28 03:10 3.50291 -81.98884 25956 ft 444 kts 316°
2026-04-28 03:10 3.52535 -82.01004 25955 ft 444 kts 316°
2026-04-28 03:11 3.54800 -82.03113 25956 ft 444 kts 317°
2026-04-28 03:11 3.57061 -82.05160 25955 ft 444 kts 317°
2026-04-28 03:11 3.59355 -82.07226 25953 ft 444 kts 317°
2026-04-28 03:11 3.61639 -82.09305 25954 ft 444 kts 317°
2026-04-28 03:12 3.63919 -82.11384 25952 ft 443 kts 317°
2026-04-28 03:12 3.66196 -82.13463 25954 ft 443 kts 317°
2026-04-28 03:12 3.68476 -82.15544 25954 ft 443 kts 317°
2026-04-28 03:12 3.70756 -82.17626 25953 ft 443 kts 317°
2026-04-28 03:13 3.73038 -82.19708 25954 ft 443 kts 317°
2026-04-28 03:13 3.75318 -82.21789 25956 ft 443 kts 317°
2026-04-28 03:13 3.77600 -82.23871 25955 ft 444 kts 317°
2026-04-28 03:13 3.79878 -82.25948 25953 ft 444 kts 317°
2026-04-28 03:14 3.82165 -82.28032 25953 ft 443 kts 317°
2026-04-28 03:14 3.84446 -82.30111 25952 ft 443 kts 317°
2026-04-28 03:14 3.86727 -82.32189 25950 ft 443 kts 317°
2026-04-28 03:14 3.89006 -82.34268 25951 ft 443 kts 317°
2026-04-28 03:15 3.91286 -82.36345 25955 ft 443 kts 317°
2026-04-28 03:15 3.93567 -82.38425 25954 ft 443 kts 317°
2026-04-28 03:15 3.95819 -82.40475 25954 ft 443 kts 317°
2026-04-28 03:15 3.98098 -82.42550 25954 ft 443 kts 317°
2026-04-28 03:16 4.00379 -82.44627 25956 ft 443 kts 317°
2026-04-28 03:16 4.02660 -82.46705 25956 ft 443 kts 317°
2026-04-28 03:16 4.04942 -82.48784 25956 ft 443 kts 317°
2026-04-28 03:16 4.07219 -82.50859 25956 ft 443 kts 317°
2026-04-28 03:17 4.09498 -82.52936 25956 ft 443 kts 317°
2026-04-28 03:17 4.14062 -82.57096 25956 ft 443 kts 317°
2026-04-28 03:17 4.16342 -82.59174 25956 ft 443 kts 317°
2026-04-28 03:18 4.18622 -82.61250 25956 ft 443 kts 317°
2026-04-28 03:18 4.20903 -82.63329 25952 ft 443 kts 317°
2026-04-28 03:18 4.23184 -82.65406 25952 ft 443 kts 317°
2026-04-28 03:18 4.25466 -82.67485 25954 ft 443 kts 317°
2026-04-28 03:19 4.27748 -82.69562 25954 ft 443 kts 317°
2026-04-28 03:19 4.30003 -82.71616 25954 ft 443 kts 317°
2026-04-28 03:19 4.32283 -82.73692 25953 ft 443 kts 317°
2026-04-28 03:19 4.34568 -82.75772 25953 ft 443 kts 317°
2026-04-28 03:20 4.36842 -82.77851 25953 ft 443 kts 317°
2026-04-28 03:20 4.39117 -82.79940 25953 ft 443 kts 317°
2026-04-28 03:20 4.41400 -82.82024 25952 ft 443 kts 317°
2026-04-28 03:20 4.43683 -82.84103 25952 ft 443 kts 317°
2026-04-28 03:21 4.45966 -82.86186 25953 ft 443 kts 317°
2026-04-28 03:21 4.48236 -82.88279 25952 ft 443 kts 317°
2026-04-28 03:21 4.50518 -82.90365 25950 ft 443 kts 317°
2026-04-28 03:21 4.52785 -82.92459 25952 ft 443 kts 316°
2026-04-28 03:22 4.55014 -82.94542 25952 ft 443 kts 316°
2026-04-28 03:22 4.57261 -82.96661 25951 ft 443 kts 316°
2026-04-28 03:22 4.59506 -82.98785 25952 ft 443 kts 316°
2026-04-28 03:22 4.61753 -83.00904 25954 ft 444 kts 316°
2026-04-28 03:23 4.64005 -83.03023 25952 ft 444 kts 316°
2026-04-28 03:23 4.66261 -83.05147 25954 ft 444 kts 316°
2026-04-28 03:23 4.68516 -83.07268 25949 ft 444 kts 316°
2026-04-28 03:23 4.70763 -83.09395 25947 ft 444 kts 316°
2026-04-28 03:24 4.73007 -83.11520 25948 ft 444 kts 316°
2026-04-28 03:24 4.75259 -83.13646 25948 ft 444 kts 316°
2026-04-28 03:24 4.77477 -83.15735 25950 ft 444 kts 316°
2026-04-28 03:24 4.79731 -83.17857 25950 ft 444 kts 316°
2026-04-28 03:25 4.81985 -83.19977 25948 ft 444 kts 316°
2026-04-28 03:25 4.84240 -83.22099 25948 ft 444 kts 316°
2026-04-28 03:25 4.86490 -83.24220 25951 ft 444 kts 316°
2026-04-28 03:25 4.88734 -83.26362 25954 ft 444 kts 316°
2026-04-28 03:26 4.90982 -83.28488 25949 ft 445 kts 316°
2026-04-28 03:26 4.93236 -83.30611 25950 ft 444 kts 316°
2026-04-28 03:26 4.95491 -83.32732 25950 ft 444 kts 316°
2026-04-28 03:26 4.97752 -83.34856 25949 ft 444 kts 316°
2026-04-28 03:27 5.00006 -83.36980 25950 ft 444 kts 316°
2026-04-28 03:27 5.02242 -83.39116 25949 ft 444 kts 316°
2026-04-28 03:27 5.04490 -83.41239 25954 ft 444 kts 316°
2026-04-28 03:27 5.06748 -83.43363 25950 ft 444 kts 316°
2026-04-28 03:28 5.09008 -83.45484 25950 ft 444 kts 316°
2026-04-28 03:28 5.11226 -83.47592 25947 ft 444 kts 316°
2026-04-28 03:28 5.13466 -83.49725 25948 ft 444 kts 316°
2026-04-28 03:28 5.15721 -83.51844 25950 ft 444 kts 316°
2026-04-28 03:29 5.17974 -83.53963 25949 ft 444 kts 316°
2026-04-28 03:29 5.20213 -83.56100 25948 ft 444 kts 316°
2026-04-28 03:29 5.22457 -83.58225 25944 ft 444 kts 316°
2026-04-28 03:29 5.24710 -83.60339 25945 ft 444 kts 316°
2026-04-28 03:30 5.26956 -83.62469 25946 ft 444 kts 316°
2026-04-28 03:30 5.29193 -83.64601 25946 ft 444 kts 316°
2026-04-28 03:30 5.31448 -83.66723 25947 ft 444 kts 316°
2026-04-28 03:30 5.33702 -83.68842 25947 ft 444 kts 316°
2026-04-28 03:31 5.35940 -83.70974 25946 ft 444 kts 316°
2026-04-28 03:31 5.38186 -83.73109 25956 ft 444 kts 316°
2026-04-28 03:31 5.40436 -83.75223 25945 ft 443 kts 316°
2026-04-28 03:31 5.42683 -83.77348 25945 ft 443 kts 316°
2026-04-28 03:32 5.44897 -83.79456 25944 ft 444 kts 316°
2026-04-28 03:32 5.47137 -83.81579 25944 ft 444 kts 316°
2026-04-28 03:32 5.49388 -83.83700 25943 ft 444 kts 316°
2026-04-28 03:32 5.51633 -83.85827 25943 ft 443 kts 316°
2026-04-28 03:33 5.53875 -83.87960 25947 ft 443 kts 316°
2026-04-28 03:33 5.56120 -83.90082 25943 ft 443 kts 316°
2026-04-28 03:33 5.58367 -83.92200 25946 ft 443 kts 316°
2026-04-28 03:33 5.60607 -83.94325 25948 ft 443 kts 316°
2026-04-28 03:34 5.62089 -83.95734 25947 ft 443 kts 316°
2026-04-28 03:34 5.64324 -83.97858 25946 ft 443 kts 316°
2026-04-28 03:34 5.66563 -83.99982 25944 ft 443 kts 316°
2026-04-28 03:34 5.68805 -84.02098 25944 ft 443 kts 316°
2026-04-28 03:35 5.71046 -84.04220 25944 ft 443 kts 316°
2026-04-28 03:35 5.73290 -84.06345 25942 ft 442 kts 316°
2026-04-28 03:35 5.75532 -84.08469 25945 ft 442 kts 316°
2026-04-28 03:35 5.77773 -84.10582 25947 ft 442 kts 317°
2026-04-28 03:36 5.80291 -84.12365 25958 ft 443 kts 329°
2026-04-28 03:36 5.82972 -84.13892 25953 ft 443 kts 329°
2026-04-28 03:36 5.85679 -84.15390 25950 ft 443 kts 333°
2026-04-28 03:36 5.88469 -84.16602 25952 ft 444 kts 339°
2026-04-28 03:37 5.91403 -84.17593 25947 ft 444 kts 342°
2026-04-28 03:37 5.94373 -84.18456 25951 ft 444 kts 344°
2026-04-28 03:37 5.97354 -84.19279 25945 ft 444 kts 344°
2026-04-28 03:37 6.00334 -84.20106 25943 ft 444 kts 344°
2026-04-28 03:38 6.03306 -84.20952 25945 ft 444 kts 343°
2026-04-28 03:38 6.06273 -84.21817 25945 ft 444 kts 343°
2026-04-28 03:38 6.09233 -84.22687 25944 ft 444 kts 343°
2026-04-28 03:38 6.12195 -84.23561 25945 ft 444 kts 343°
2026-04-28 03:39 6.15157 -84.24437 25947 ft 444 kts 343°
2026-04-28 03:39 6.18085 -84.25304 25946 ft 444 kts 343°
2026-04-28 03:39 6.21054 -84.26182 25948 ft 443 kts 343°
2026-04-28 03:39 6.24012 -84.27056 25943 ft 443 kts 343°
2026-04-28 03:40 6.26973 -84.27931 25943 ft 443 kts 343°
2026-04-28 03:40 6.29938 -84.28809 25940 ft 444 kts 343°
2026-04-28 03:40 6.32899 -84.29689 25945 ft 444 kts 343°
2026-04-28 03:40 6.35860 -84.30570 25945 ft 444 kts 343°
2026-04-28 03:41 6.38826 -84.31450 25947 ft 443 kts 343°
2026-04-28 03:41 6.41786 -84.32327 25943 ft 443 kts 343°
2026-04-28 03:41 6.44742 -84.33202 25943 ft 443 kts 343°
2026-04-28 03:41 6.47695 -84.34084 25943 ft 443 kts 343°
2026-04-28 03:42 6.50648 -84.34962 25944 ft 443 kts 343°
2026-04-28 03:42 6.53568 -84.35826 25943 ft 443 kts 343°
2026-04-28 03:42 6.56526 -84.36699 25943 ft 443 kts 343°
2026-04-28 03:42 6.59480 -84.37578 25944 ft 443 kts 342°
2026-04-28 03:43 6.62433 -84.38461 25943 ft 443 kts 343°
2026-04-28 03:43 6.65391 -84.39338 25948 ft 442 kts 343°
2026-04-28 03:43 6.68347 -84.40211 25944 ft 442 kts 343°
2026-04-28 03:43 6.71298 -84.41084 25943 ft 442 kts 343°
2026-04-28 03:44 6.74255 -84.41969 25944 ft 442 kts 342°
2026-04-28 03:44 6.77204 -84.42850 25945 ft 443 kts 343°
2026-04-28 03:44 6.80160 -84.43728 25946 ft 443 kts 343°
2026-04-28 03:44 6.83117 -84.44602 25948 ft 443 kts 343°
2026-04-28 03:45 6.86072 -84.45476 25944 ft 442 kts 343°
2026-04-28 03:45 6.89028 -84.46348 25944 ft 442 kts 343°
2026-04-28 03:45 6.91970 -84.47236 25943 ft 442 kts 342°
2026-04-28 03:45 6.94922 -84.48124 25945 ft 442 kts 343°
2026-04-28 03:46 6.97869 -84.49001 25946 ft 442 kts 343°
2026-04-28 03:46 7.00823 -84.49875 25946 ft 443 kts 343°
2026-04-28 03:46 7.03780 -84.50750 25948 ft 443 kts 343°
2026-04-28 03:46 7.06742 -84.51625 25948 ft 443 kts 343°
2026-04-28 03:47 7.09697 -84.52497 25947 ft 443 kts 343°
2026-04-28 03:47 7.12651 -84.53378 25949 ft 442 kts 342°
2026-04-28 03:47 7.15564 -84.54256 25943 ft 442 kts 343°
2026-04-28 03:47 7.18516 -84.55135 25934 ft 443 kts 343°
2026-04-28 03:48 7.21470 -84.56011 25945 ft 443 kts 343°
2026-04-28 03:48 7.24423 -84.56886 25943 ft 443 kts 343°
2026-04-28 03:48 7.27380 -84.57761 25947 ft 443 kts 343°
2026-04-28 03:48 7.30336 -84.58638 25946 ft 443 kts 343°
2026-04-28 03:49 7.33294 -84.59526 25947 ft 443 kts 342°
2026-04-28 03:49 7.36249 -84.60411 25947 ft 443 kts 343°
2026-04-28 03:49 7.39207 -84.61292 25947 ft 443 kts 343°
2026-04-28 03:49 7.42166 -84.62169 25948 ft 443 kts 343°
2026-04-28 03:50 7.45085 -84.63035 25947 ft 443 kts 343°
2026-04-28 03:50 7.48048 -84.63918 25947 ft 443 kts 342°
2026-04-28 03:50 7.51003 -84.64812 25947 ft 443 kts 343°
2026-04-28 03:50 7.53960 -84.65694 25952 ft 443 kts 343°
2026-04-28 03:51 7.56652 -84.66492 25953 ft 443 kts 343°
2026-04-28 03:51 7.59623 -84.67372 25945 ft 443 kts 343°
2026-04-28 03:51 7.62584 -84.68250 25947 ft 443 kts 342°
2026-04-28 03:51 7.65537 -84.69150 25947 ft 443 kts 342°
2026-04-28 03:52 7.68467 -84.70027 25953 ft 446 kts 343°
2026-04-28 03:52 7.71458 -84.70914 25960 ft 449 kts 343°
2026-04-28 03:52 7.74469 -84.71802 25949 ft 452 kts 343°
2026-04-28 03:52 7.77483 -84.72714 25949 ft 452 kts 342°
2026-04-28 03:53 7.80497 -84.73623 25949 ft 452 kts 343°
2026-04-28 03:53 7.83518 -84.74515 25948 ft 452 kts 343°
2026-04-28 03:53 7.86528 -84.75409 25945 ft 451 kts 342°
2026-04-28 03:53 7.89535 -84.76325 25946 ft 451 kts 342°
2026-04-28 03:54 7.92543 -84.77219 25947 ft 451 kts 343°
2026-04-28 03:54 7.95549 -84.78110 25946 ft 449 kts 342°
2026-04-28 03:54 7.98552 -84.79021 25945 ft 450 kts 342°
2026-04-28 03:54 8.01553 -84.79924 25947 ft 450 kts 342°
2026-04-28 03:55 8.04562 -84.80808 25946 ft 450 kts 343°
2026-04-28 03:55 8.07565 -84.81703 25947 ft 450 kts 342°
2026-04-28 03:55 8.10563 -84.82614 25947 ft 450 kts 342°
2026-04-28 03:55 8.13573 -84.83511 25947 ft 450 kts 342°
2026-04-28 03:56 8.16579 -84.84403 25947 ft 450 kts 342°
2026-04-28 03:56 8.19549 -84.85303 25947 ft 450 kts 342°
2026-04-28 03:56 8.22553 -84.86208 25950 ft 450 kts 342°
2026-04-28 03:56 8.25563 -84.87094 25948 ft 450 kts 342°
2026-04-28 03:57 8.28570 -84.87998 25949 ft 451 kts 342°
2026-04-28 03:57 8.31582 -84.88911 25951 ft 451 kts 342°
2026-04-28 03:57 8.34594 -84.89801 25946 ft 451 kts 342°
2026-04-28 03:57 8.37600 -84.90701 25950 ft 451 kts 342°
2026-04-28 03:58 8.40575 -84.91602 25945 ft 451 kts 342°
2026-04-28 03:58 8.43576 -84.92511 25947 ft 451 kts 342°
2026-04-28 03:58 8.46586 -84.93397 25948 ft 450 kts 342°
2026-04-28 03:58 8.49598 -84.94268 25950 ft 450 kts 343°
2026-04-28 03:59 8.52610 -84.95133 25951 ft 450 kts 343°
2026-04-28 03:59 8.55628 -84.95996 25949 ft 451 kts 343°
2026-04-28 03:59 8.58645 -84.96858 25945 ft 451 kts 343°
2026-04-28 03:59 8.61663 -84.97719 25948 ft 451 kts 343°
2026-04-28 04:00 8.64683 -84.98580 25945 ft 451 kts 343°
2026-04-28 04:00 8.67697 -84.99439 25949 ft 450 kts 343°
2026-04-28 04:00 8.70714 -85.00298 25948 ft 450 kts 343°
2026-04-28 04:00 8.73736 -85.01157 25951 ft 450 kts 343°
2026-04-28 04:01 8.76753 -85.02014 25949 ft 450 kts 343°
2026-04-28 04:01 8.79770 -85.02871 25951 ft 450 kts 343°
2026-04-28 04:01 8.82744 -85.03718 25950 ft 450 kts 342°
2026-04-28 04:01 8.85750 -85.04595 25950 ft 449 kts 342°
2026-04-28 04:02 8.88764 -85.05460 25952 ft 450 kts 343°
2026-04-28 04:02 8.91776 -85.06319 25953 ft 450 kts 343°
2026-04-28 04:02 8.94794 -85.07175 25954 ft 450 kts 343°
2026-04-28 04:02 8.97802 -85.08047 25950 ft 450 kts 342°
2026-04-28 04:03 9.00810 -85.08914 25951 ft 449 kts 343°
2026-04-28 04:03 9.03816 -85.09771 25951 ft 449 kts 343°
2026-04-28 04:03 9.06825 -85.10627 25952 ft 449 kts 343°
2026-04-28 04:03 9.09829 -85.11507 25948 ft 449 kts 342°
2026-04-28 04:04 9.12830 -85.12372 25950 ft 449 kts 343°
2026-04-28 04:04 9.15833 -85.13230 25948 ft 449 kts 343°
2026-04-28 04:04 9.18843 -85.14087 25953 ft 449 kts 343°
2026-04-28 04:04 9.21843 -85.14941 25950 ft 448 kts 342°
2026-04-28 04:05 9.24846 -85.15821 25949 ft 448 kts 342°
2026-04-28 04:05 9.27842 -85.16685 25949 ft 448 kts 343°
2026-04-28 04:05 9.30842 -85.17544 25951 ft 448 kts 343°
2026-04-28 04:05 9.33848 -85.18401 25950 ft 448 kts 343°
2026-04-28 04:06 9.36810 -85.19247 25950 ft 448 kts 343°
2026-04-28 04:06 9.39803 -85.20102 25950 ft 448 kts 342°
2026-04-28 04:06 9.42769 -85.21058 25950 ft 447 kts 338°
2026-04-28 04:06 9.45633 -85.22246 25561 ft 442 kts 334°
2026-04-28 04:07 9.48393 -85.23605 24850 ft 439 kts 332°
2026-04-28 04:07 9.51085 -85.25040 24227 ft 433 kts 331°
2026-04-28 04:07 9.53734 -85.26465 23601 ft 428 kts 331°
2026-04-28 04:07 9.56354 -85.27873 22879 ft 423 kts 332°
2026-04-28 04:08 9.58946 -85.29246 22160 ft 418 kts 332°
2026-04-28 04:08 9.61520 -85.30590 21458 ft 414 kts 333°
2026-04-28 04:08 9.64064 -85.31914 20766 ft 409 kts 333°
2026-04-28 04:08 9.66592 -85.33214 20083 ft 405 kts 334°
2026-04-28 04:09 9.69095 -85.34501 19400 ft 401 kts 334°
2026-04-28 04:09 9.71567 -85.35778 18716 ft 397 kts 334°
2026-04-28 04:09 9.74013 -85.37046 18018 ft 393 kts 334°
2026-04-28 04:09 9.76431 -85.38305 17287 ft 388 kts 334°
2026-04-28 04:10 9.78793 -85.39532 16576 ft 384 kts 334°
2026-04-28 04:10 9.81155 -85.40759 15894 ft 379 kts 334°
2026-04-28 04:10 9.83499 -85.41972 15214 ft 375 kts 334°
2026-04-28 04:10 9.85813 -85.43165 14544 ft 371 kts 334°
2026-04-28 04:11 9.88109 -85.44345 13897 ft 367 kts 334°
2026-04-28 04:11 9.90373 -85.45505 13189 ft 363 kts 334°
2026-04-28 04:11 9.92618 -85.46655 12531 ft 358 kts 334°
2026-04-28 04:11 9.94799 -85.47772 12219 ft 344 kts 334°
2026-04-28 04:12 9.96882 -85.48855 12024 ft 327 kts 333°
2026-04-28 04:12 9.98857 -85.49894 11844 ft 313 kts 334°
2026-04-28 04:12 10.00739 -85.50871 11680 ft 301 kts 334°
2026-04-28 04:12 10.02585 -85.51825 11393 ft 295 kts 334°
2026-04-28 04:13 10.04409 -85.52768 11023 ft 293 kts 334°
2026-04-28 04:13 10.06218 -85.53703 10642 ft 291 kts 334°
2026-04-28 04:13 10.08017 -85.54632 10270 ft 289 kts 334°
2026-04-28 04:13 10.09811 -85.55557 9905 ft 288 kts 334°
2026-04-28 04:14 10.11590 -85.56474 9483 ft 286 kts 334°
2026-04-28 04:14 10.13372 -85.57395 9080 ft 293 kts 334°
2026-04-28 04:14 10.15186 -85.58341 8651 ft 293 kts 334°
2026-04-28 04:14 10.16982 -85.59279 8475 ft 281 kts 334°
2026-04-28 04:15 10.18702 -85.60177 8035 ft 282 kts 334°
2026-04-28 04:15 10.20434 -85.61085 7744 ft 276 kts 334°
2026-04-28 04:15 10.23735 -85.62826 7353 ft 262 kts 334°
2026-04-28 04:16 10.25363 -85.63674 7134 ft 264 kts 335°
2026-04-28 04:16 10.27010 -85.64519 6945 ft 264 kts 335°
2026-04-28 04:16 10.28633 -85.65353 6974 ft 260 kts 335°
2026-04-28 04:16 10.30248 -85.66197 6991 ft 261 kts 334°
2026-04-28 04:17 10.31862 -85.67039 6994 ft 260 kts 335°
2026-04-28 04:17 10.33479 -85.67873 6995 ft 261 kts 335°
2026-04-28 04:17 10.35092 -85.68708 6997 ft 260 kts 335°
2026-04-28 04:17 10.36705 -85.69554 7000 ft 261 kts 335°
2026-04-28 04:18 10.38320 -85.70391 6998 ft 261 kts 335°
2026-04-28 04:18 10.39940 -85.71228 6778 ft 261 kts 335°
2026-04-28 04:18 10.41551 -85.72065 6476 ft 259 kts 335°
2026-04-28 04:18 10.43153 -85.72895 6171 ft 258 kts 335°
2026-04-28 04:19 10.44732 -85.73716 5844 ft 257 kts 335°
2026-04-28 04:19 10.46351 -85.74466 5593 ft 251 kts 341°
2026-04-28 04:19 10.47942 -85.75073 5555 ft 238 kts 343°
2026-04-28 04:19 10.49496 -85.75391 5527 ft 220 kts 11°
2026-04-28 04:20 10.50784 -85.74790 5508 ft 194 kts 40°
2026-04-28 04:20 10.51693 -85.73889 5279 ft 172 kts 52°
2026-04-28 04:20 10.52341 -85.72974 5175 ft 148 kts 59°
2026-04-28 04:20 10.52812 -85.72128 5025 ft 130 kts 63°
2026-04-28 04:21 10.53206 -85.71301 4772 ft 128 kts 65°
2026-04-28 04:21 10.53571 -85.70473 4500 ft 128 kts 68°
2026-04-28 04:21 10.53913 -85.69639 4235 ft 128 kts 69°
2026-04-28 04:21 10.54235 -85.68785 3886 ft 132 kts 70°
2026-04-28 04:22 10.54549 -85.67907 3504 ft 132 kts 71°
2026-04-28 04:22 10.54857 -85.67028 3137 ft 132 kts 71°
2026-04-28 04:22 10.55165 -85.66148 2774 ft 132 kts 71°
2026-04-28 04:22 10.55477 -85.65260 2329 ft 135 kts 71°
2026-04-28 04:23 10.55792 -85.64373 1999 ft 133 kts 70°
2026-04-28 04:23 10.56103 -85.63507 1766 ft 128 kts 71°
2026-04-28 04:23 10.56409 -85.62657 1578 ft 127 kts 70°
2026-04-28 04:23 10.56710 -85.61824 1431 ft 124 kts 71°
2026-04-28 04:24 10.56906 -85.61274 1329 ft 125 kts 71°
2026-04-28 04:24 10.57204 -85.60438 1166 ft 126 kts 71°
2026-04-28 04:24 10.57503 -85.59608 1015 ft 125 kts 71°
2026-04-28 04:24 10.57904 -85.58505 822 ft 126 kts 71°
2026-04-28 04:25 10.58107 -85.57937 718 ft 127 kts 71°
2026-04-28 04:25 10.58507 -85.56827 536 ft 126 kts 72°
2026-04-28 04:25 10.58706 -85.56269 413 ft 127 kts 73°
2026-04-28 04:25 10.58995 -85.55430 279 ft 124 kts 72°
2026-04-28 04:26 10.59266 -85.54650 266 ft 108 kts 70°
2026-04-28 04:26 10.59471 -85.54083 272 ft 61 kts 70°
2026-04-28 04:26 10.59596 -85.53732 277 ft 43 kts 70°
2026-04-28 04:26 10.59726 -85.53531 278 ft 31 kts 27°
2026-04-28 04:27 10.59868 -85.53451 279 ft 19 kts 59°
2026-04-28 04:27 10.59904 -85.53348 280 ft 11 kts 49°
2026-04-28 04:27 10.59948 -85.53371 280 ft 8 kts 279°
2026-04-28 04:27 10.59943 -85.53413 280 ft 5 kts 285°
2026-04-28 04:28 10.59972 -85.53432 280 ft 5 kts 336°
2026-04-28 04:28 10.60002 -85.53444 280 ft 5 kts 340°
2026-04-28 04:28 10.60028 -85.53453 280 ft 0 kts 340°